map of MAA home
Great Circle Mapper logo
MAA - Airport
Location
City:  Chennai/Madras, India
Name:Meenambakkam
ICAO / IATA:VOMM / MAA

Details
Type:Airport (Aerodrome, Airfield)
Use:Public/Civil, International (customs port of entry)
Latitude:12°59'40"N (12.994414)
Longitude:80°10'50"E (80.180517)
Datum:WGS 1984
Elevation:52 ft (16 m)
Variation:1.39°W (WMM2015 magnetic declination)
0.07° annual change
Runways:2
Longest:12001 × 148 ft (3658 × 45 m), paved

Time
Time Zone:UTC+5:30
Local Time:

Weather
METAR:VOMM 010610Z 14012KT 6000 SCT018 SCT025 31/23 Q1012 NOSIG
TAF:VOMM 281500Z 2818/0124 12010KT 6000 FEW020 SCT080
BECMG 2821/2822 VRB02KT 3000 BR
TEMPO 0100/0103 1500 BR
BECMG 0105/0106 13010KT 6000
BECMG 0121/0122 VRB02KT

Related Locations
Nearby:
Farthest:SEII: 11410 mi / 18362 km
Puerto Villamil [General Villamil], Isabela Island, Galápagos Islands, EC

Find:

   beyond  
but within

Other Information
Maps:
NOTAMs:
Links:
Sources:

  
flag of India   

Sectional Chart

Flight Planning
at skyvector.com

Satellite Image

Google Maps Satellite View

 

Copyright © 2004-2015 Karl L. Swartz. All rights reserved.
The Great Circle Mapper name and logo are trademarks of the Great Circle Mapper.
All other trademarks mentioned herein belong to their respective owners.
Please see credits for attibutions and further copyright information.

  Follow gcmap on Facebook Follow gcmap on Twitter Follow gcmap on Google+

hCard Microformat

Geo Microformat